Location: Mason Neck State Park
(38.6428°N, 77.1981°W)
Time: 10:16:43
(UTC-04:00)

Daily predictions for brighter satellites

Satellite Brightness Start Highest point End
(mag) Time Altitude Azimuth Time Altitude Azimuth Time Altitude Azimuth
Cosmos 1892 Rocket 3.6 20:02:35 10° N 20:07:06 86° E 20:11:34 10° S
Cosmos 1455 Rocket 3.0 20:03:50 10° S 20:08:06 66° E 20:12:27 10° NNE
Meteor 1-29 3.0 20:06:02 10° NNE 20:09:30 88° ESE 20:12:59 10° SSW
Cosmos 1975 3.6 20:06:27 10° SSE 20:10:05 31° E 20:13:43 10° NNE
Meteor 1-23 Rocket 4.5 20:04:30 10° NNW 20:10:10 79° W 20:15:53 10° S
NOSS 3-4 (A) 4.1 20:07:07 10° NW 20:14:12 78° WSW 20:21:41 10° SSE
NOSS 3-4 (C) 4.1 20:07:14 10° NW 20:14:19 79° WSW 20:21:49 10° SSE
Lacrosse 5 rocket 1.0 20:10:44 10° NW 20:14:28 80° NE 20:18:04 10° SE
Cosmos 2227 Rocket 2.2 20:08:48 10° NNW 20:14:29 77° ENE 20:20:07 10° SSE
Tiangong 1 2.0 20:12:01 10° WNW 20:14:58 39° N 20:17:55 10° E
Cosmos 1602 Rocket 4.3 20:11:05 10° N 20:15:11 34° ENE 20:19:12 10° SE
CZ-2D R/B 3.8 20:14:59 10° SE 20:18:36 39° ENE 20:22:14 10° N
Cosmos 1500 4.3 20:16:40 10° SE 20:19:42 23° E 20:22:44 10° NE
FengYun 1-2 T 4.3 20:17:31 10° SSE 20:23:09 82° ENE 20:28:47 10° NNW
Cosmos 2123 Rocket 4.0 20:17:50 10° N 20:24:02 77° E 20:30:12 10° S
Resurs 1-3 3.7 20:21:29 10° S 20:25:51 80° WSW 20:30:15 10° NNW
Cosmos 2297 Rocket 2.2 20:23:43 10° NNW 20:29:23 73° ENE 20:35:01 10° SSE
Okean 2 4.2 20:26:31 10° NNW 20:30:36 56° W 20:34:38 10° S
Cosmos 2082 3.8 20:25:32 10° NNW 20:31:10 83° WSW 20:36:47 10° SSE
CZ-4B DEB 2.8 20:28:05 10° SSE 20:31:22 89° ENE 20:34:40 10° NNW
Helios 1B rocket 3.9 20:27:52 10° N 20:31:46 42° WNW 20:35:39 10° SW
SL-24 R/B - RUBIN 2 4.4 20:29:11 10° SSW 20:34:58 88° WNW 20:41:29 10° NNE
Meteor 1-12 Rocket 4.2 20:29:25 10° S 20:35:07 74° E 20:40:59 10° NNE
Iridium 4 Rocket 3.4 20:36:42 10° N 20:41:29 50° E 20:45:50 10° SSE
Cosmos 1346 Rocket 4.1 20:40:36 10° NNW 20:44:22 43° W 20:48:10 10° SSW
Cosmos 1515 3.8 20:41:29 10° N 20:45:15 53° E 20:48:35 13° SSE
Envisat 4.0 20:46:26 18° ESE 20:49:03 28° ENE 20:53:18 10° N
Cosmos 1939 Rocket 4.1 20:48:12 20° ESE 20:49:46 25° ENE 20:53:13 10° NNE
Lacrosse 5 2.1 20:45:36 10° NW 20:50:35 55° NE 20:53:46 21° ESE
Cosmos 1937 Rocket 3.9 20:46:25 10° N 20:51:30 46° ENE 20:54:55 20° SE
Resurs 01 Rocket 3.6 20:48:50 10° SSW 20:52:42 30° W 20:56:37 10° NW
Cosmos 1153 Rocket 4.4 20:48:03 10° S 20:54:14 83° E 21:00:24 10° N
Cosmos 2298 Rocket 4.0 20:49:37 10° NNW 20:54:57 77° ENE 20:59:37 14° SSE
SPOT 5 4.3 20:58:56 19° E 21:00:06 21° ENE 21:03:40 10° NNE
Cosmos 1743 3.1 20:59:22 20° SSE 21:01:40 42° E 21:05:23 10° NNE
Cosmos 1697 Rocket 2.7 20:56:38 10° SSW 21:02:17 87° WNW 21:07:58 10° NNE
SJ-11-01 4.4 21:03:16 23° SE 21:06:04 55° ENE 21:10:39 10° N
Cosmos 1066 Rocket 4.2 21:02:31 10° N 21:08:15 77° E 21:13:22 14° SSE
Cosmos 1726 Rocket 4.2 21:09:03 32° ESE 21:09:36 33° E 21:13:33 10° NNE
Cosmos 1802 Rocket 4.1 21:05:09 10° SSE 21:11:21 56° E 21:17:37 10° NNE
ERS-1 Rocket 3.0 21:08:34 24° SE 21:11:25 58° ENE 21:16:21 10° N
SL-16 R/B 3.5 21:16:08 22° ENE 21:16:08 22° ENE 21:19:04 10° NE
RESURS DK-1 2.2 21:13:14 10° NNW 21:17:24 82° ENE 21:18:51 39° SSE
Cosmos 2016 Rocket 4.1 21:14:02 15° SSE 21:18:55 52° E 21:24:55 10° NNE
CZ-4 DEB 2.5 21:19:00 67° SE 21:19:21 81° ENE 21:22:31 10° N
Cosmos 2150 Rocket 4.1 21:15:06 10° NNW 21:20:15 72° WSW 21:23:51 20° S
OTV 4 3.2 21:22:35 10° SW 21:22:59 10° SSW 21:22:59 10° SSW
Cosmos 1763 Rocket 3.3 21:19:00 10° S 21:24:04 69° ESE 21:29:07 10° NNE
USA 186 3.8 21:22:39 10° SSW 21:25:10 25° W 21:27:37 10° NW
ALOS 4.0 21:21:18 10° SSW 21:25:26 31° W 21:29:36 10° NNW
Cosmos 1825 Rocket 3.4 21:21:19 10° N 21:25:44 68° E 21:26:55 45° SSE
Cosmos 1980 Rocket 2.1 21:20:36 10° SSW 21:26:16 89° ESE 21:32:00 10° NNE
OAO 2 Rocket 3.5 21:22:05 10° W 21:26:58 54° S 21:28:13 42° SE
Cosmos 2173 Rocket 4.0 21:24:30 10° S 21:30:53 89° W 21:37:15 10° N
Cosmos 1898 Rocket 4.2 21:28:18 10° NNW 21:33:24 51° WSW 21:37:06 18° S
Cosmos 2098 Rocket 4.1 21:31:59 27° SSE 21:35:31 55° E 21:41:06 10° NNE
Cosmos 1953 Rocket 3.5 21:32:54 10° N 21:37:21 67° E 21:37:48 62° ESE
H-2A R/B 2.1 21:37:53 53° ENE 21:37:53 53° ENE 21:41:47 10° N
Cosmos 1842 4.2 21:34:11 10° N 21:36:55 34° NE 21:36:55 34° NE
Cosmos 1125 Rocket 4.2 21:34:50 10° N 21:39:38 36° ENE 21:39:49 36° ENE
Cosmos 2228 4.5 21:43:11 24° NE 21:43:11 24° NE 21:45:13 10° NNE
Nimbus 7 Rocket 4.4 21:36:13 10° NNE 21:42:17 67° ESE 21:45:42 27° S
DELTA 2 R/B (1) 4.3 21:37:29 10° W 21:42:38 40° SSW 21:43:49 35° S
Cosmos 967 Rocket 4.4 21:36:41 10° NNW 21:43:03 80° ENE 21:45:05 46° SE
Cosmos 1666 3.8 21:45:24 34° NNE 21:45:24 34° NNE 21:47:41 10° NNE
Cosmos 1864 Rocket 4.4 21:46:03 47° SE 21:47:27 58° E 21:53:26 10° NNE
Cosmos 2100 Rocket 4.5 21:41:44 10° SSW 21:47:54 59° W 21:54:04 10° N
Cosmos 841 Rocket 3.5 21:43:10 10° SSW 21:48:24 80° WNW 21:53:38 10° NNE
CZ-3C R/B 4.1 21:22:54 10° W 21:50:48 28° SW 21:55:35 19° S
Tiangong 1 2.9 21:48:30 10° WNW 21:50:13 29° W 21:50:13 29° W
YAOGAN 6 4.1 21:53:36 29° NNE 21:53:36 29° NNE 21:55:41 10° N
Cosmos 2263 Rocket 3.4 21:48:23 10° N 21:52:51 25° NE 21:52:51 25° NE
Cosmos 1758 Rocket 3.5 21:51:25 10° N 21:55:33 80° NNW 21:55:33 80° NNW
ASTEX 1 3.2 21:53:41 10° N 21:58:42 83° E 21:58:58 78° SSE
Cosmos 2322 Rocket 2.1 22:00:47 64° E 22:00:47 64° E 22:05:57 10° NNE
Tsikada Rocket 4.0 21:55:03 10° N 22:01:28 68° E 22:02:25 60° SE
Cosmos 1340 3.8 22:00:28 10° NNW 22:03:55 41° W 22:03:55 41° W
deb Chang Zheng 4 3.9 22:00:45 10° N 22:05:10 66° WNW 22:05:36 62° WSW
Meteor 1-15 Rocket 4.2 22:08:02 62° S 22:09:07 87° E 22:15:01 10° N
MetOp-A 4.0 22:12:56 81° SSW 22:13:09 84° WSW 22:18:33 10° NNW
Meteor 2-9 Rocket 4.2 22:12:19 55° SSW 22:13:28 75° W 22:18:53 10° N
Cosmos 1816 Rocket 4.4 22:11:55 10° N 22:18:18 72° E 22:18:25 72° E
Cosmos 1725 Rocket 4.0 22:18:11 48° SSW 22:20:01 75° W 22:26:17 10° N
Cosmos 2058 Rocket 4.0 22:22:25 47° WNW 22:22:25 47° WNW 22:26:44 10° N
Milstar 3 Cent rocket 4.3 22:08:29 10° W 22:27:17 45° SSW 22:30:15 40° S
Envisat 4.4 22:26:38 28° SW 22:27:55 32° W 22:32:28 10° NNW
Lacrosse 5 3.7 22:29:18 10° WNW 22:32:58 22° WSW 22:32:58 22° WSW
SPOT 5 3.9 22:38:12 40° W 22:38:12 40° W 22:42:27 10° NNW
Cosmos 2233 Rocket 4.0 22:43:02 75° NNW 22:43:02 75° NNW 22:48:49 10° N
H-2A R/B 3.5 22:56:29 31° N 22:56:29 31° N 22:59:03 10° N
ARGOS 4.0 22:57:43 46° NW 22:57:43 46° NW 23:01:49 10° NNW
Terra 3.7 22:59:15 25° N 22:59:15 25° N 23:01:14 10° N
SL-16 R/B 3.2 22:57:52 42° WNW 22:58:23 44° WNW 23:03:48 10° N
Cosmos 2360 Rocket 4.1 23:14:22 22° NNE 23:14:22 22° NNE 23:16:18 10° NNE
BREEZE-M DEB (TANK) 4.2 22:50:24 10° WNW 23:14:27 81° NNE 23:14:38 81° NE
USA 215 3.8 23:21:34 53° N 23:21:34 53° N 23:26:59 10° NW
BREEZE-M DEB (TANK) 4.4 23:21:42 10° NW 23:31:51 51° WNW 23:31:51 51° WNW
Cosmos 2263 Rocket 3.9 23:31:47 10° NW 23:34:33 27° NW 23:34:33 27° NW
